Showing default

SDX01, 62459

Orbit data source: Space-Track

SDX01, 62459 is a payload satellite owned by ISRO (IN) in LEO that was launched on Mon, 30 Dec 2024 UTC via a PSLV launch vehicle from the Sirharikota (SRI). Payload-class satellites include a variety of spacecraft equipped with specific instruments for various scientific and technological missions. These include communications satellites like Starlink; space stations such as the ISS; scientific satellites like the Hubble; Earth observation satellites from companies like Planet Labs, Umbra, and HawkEye 360; GPS; miniature CubeSats for education and research; and military/defense satellites.

Loading next visibility...
Identifier
62459, 2024-253A
Orbit
LEO
Country
Flag of ININ / IND
Related business
Manufacturer
ISRO
Mission
Operational Civil Technology
Bus & Motor
SPADEX, Unknown motor
Mass
220 kg wet, ~180 kg dry
Launch date (UTC)
2024-12-30 (10 months ago)
Launch vehicle
PSLV
Launch site
Sirharikota (SRI)
Object type
Payload
Rocket body
Debris
Shape & HBR
Box + 2 Pan, 1.3 m
Radar Cross Section
0.901 m², Large (>1 m²)

Expand to show TLE details & history
Last TLE update: 6 hours ago

TLE from 6 hours ago
0 SDX01
1 62459U 24253A   25290.84857310  .00052896  00000-0  11032-2 0  9995
2 62459  54.9982  28.0151 0004788 329.5993  30.4760 15.45093193 44805
Epoch: 2025-10-17T20:21Z
TLE epoch observation values (Epoch: 2025-10-17T20:21:56.715Z)
Latitude
-0.00001°
Longitude
55.94073°
Altitude
429.397 km
Speed
7.657 km/s
True Right ascension
01h 52m 03s
True Declination
0° 00' 00"
Sunlit
Object was in full shadow at epoch
Visualization orbit readout
Latitude
Unknown
Longitude
Unknown
Altitude
Unknown
Speed
Unknown
Apparent Right ascension
Unknown
Apparent Declination
Unknown
Sunlit
N/A
Visualization observer readout
Local Sidereal Time
21:03:45
Azimuth
Unknown
Elevation
Unknown
Doppler factor
Unknown
Orbital elements
Apogee altitude
434.327 km
Perigee altitude
427.806 km
Semi-major axis
6,809.204 km
Eccentricity
0.00048
Inclination
54.9982°
RAAN
28.0151°
Arg. of periapsis
329.5993°
True anomaly
30.50384°
Mean anomaly
30.476°
Eccentric anomaly
30.48992°
Mean motion
3.86277 °/min
Orbital period
93.2 mins
BSTAR
0.0011032
Loading maneuver chart data...
Computing Atmospheric mass density...
Loading historical data...
Loading historical data...
Loading historical data...
Loading historical data...
Loading historical data...
Loading historical data...
Loading historical data...
Other satellites on launch #253 in the year 2024 (2024-12-30 UTC)

Documentation

Showing up to 5 results
|